Charter Quote
Worldwide +1-877-727-2538 Call
Select Language Lang
SAFETY RELIABILITY EXPERIENCE

Private Jet Charter Services - Abumusa Island Airport (OIBA)

Paramount Business Jets offers private jet charter flights and luxury airliner charters to and from Abumusa Island Airport.

AIRPORT INFORMATION
ICAOOIBA
LOCATIONAbumusa Island, Iran
FACILITY TYPEAIRPORT
Runway Length (ft) Width (ft) Surface Type Elevation (ft)
26/08 9796 148 ASP 22.98361

At Paramount Business Jets you can hire chartered private jets to and from Abumusa Island Airport with as little as 4 hours of notice. All flights booked via Paramount Business Jets are operated by certified direct air carriers that meet and exceed the FAA part 135 and 121 protocol or a foreign equivalent safety authority. Furthermore, Paramount Business Jets subscribes to ARGUS for their third party safety checks of operators, aircraft, and crews prior each and every flight to and from Abumusa Island Airport and worldwide.

  • Quote a trip using Abumusa Island Airport or call us 24/7 - 365 days a year at +1-877-727-2538.
Questions? Call +1-877-727-2538

METAR Weather Data at Abumusa Island Airport, OIBA

STATIONOIBA
OBSERVEDThu Jul 18, 11:00 UTC
NOWThu Jul 18, 11:23 UTC
AGE23 min ago
WINDNW at 12 mph
VISIBILITY10 miles
METAROIBA 181100Z 31010KT 6000 NSC 37/28 Q0997

Call us on +1-877-727-2538 (24 Hours) to Hire a Private Jet or Get a Quick Quote.

Find Airports Near any Location

Processing
...